Location: Unspecified
(0.0000°N, 0.0000°E)
Time: 22:01:29
(UTC+00:00)

Altair - Pass Details

Date: 23 July 2024
Orbit: 1502 x 1682 km, 47.2° (Epoch: 07 July)

Event Time Altitude Azimuth Distance (km) Brightness Sun altitude
Rises 01:02:21 0° 336° (NNW) 4,636 - -65.8°
Reaches altitude 10° 01:05:38 10° 344° (NNW) 3,671 - -65.3°
Maximum altitude 01:14:05 39° 50° (NE) 2,167 - -64.1°
Drops below altitude 10° 01:22:47 10° 116° (ESE) 3,796 - -62.6°
Sets 01:26:12 0° 123° (ESE) 4,810 - -62.1°
